Burnsville, North Carolina, United States (28714)
Lat: 35.92N, Lon: 82.3W
Wx Zone: NCZ049
Local Info
Past Weather Observations for Sunday, August 31, 2014

NOTE: This archive is for the closest National Weather Service station to Burnsville. Information may differ from the station used for current weather conditions.

Click here for Long-term Archive

Time Weather Temperature Dewpoint Humidity Pressure Winds Precip Visibility
23:54
Partly Cloudy
72°F / 22°C 70°F / 21°C 94% 30.21 in
(1023 mb)
Calm - 10SM
22:54
Mostly Cloudy
73°F / 23°C 70°F / 21°C 89% 30.21 in
(1023 mb)
Calm - 10SM
21:54
Overcast
73°F / 23°C 70°F / 21°C 89% 30.24 in
(1024 mb)
ESE 3.5 mph
(ESE 6 kph)
0.01 in
(0.25 mm)
10SM
20:54
Overcast
Light Rain
75°F / 24°C 70°F / 21°C 83% 30.24 in
(1024 mb)
SSE 3.5 mph
(SSE 6 kph)
0.00 in
(0.00 mm)
8SM
19:54
Overcast
75°F / 24°C 70°F / 21°C 83% 30.21 in
(1023 mb)
Calm 0.00 in
(0.00 mm)
10SM
18:54
Partly Cloudy
77°F / 25°C 68°F / 20°C 74% 30.21 in
(1023 mb)
S 4.6 mph
(S 7 kph)
- 10SM
17:54
Overcast
79°F / 26°C 66°F / 19°C 65% 30.18 in
(1022 mb)
S 5.8 mph
(S 9 kph)
- 10SM
16:54
Overcast
81°F / 27°C 66°F / 19°C 62% 30.18 in
(1022 mb)
SSE 6.9 mph
(SSE 11 kph)
- 10SM
15:54
Overcast
81°F / 27°C 66°F / 19°C 62% 30.18 in
(1022 mb)
SSE 5.8 mph
(SSE 9 kph)
- 10SM
14:54
Mostly Cloudy
82°F / 28°C 64°F / 18°C 55% 30.21 in
(1023 mb)
SSE 6.9 mph
(SSE 11 kph)
- 10SM
13:54
Overcast
82°F / 28°C 64°F / 18°C 55% 30.21 in
(1023 mb)
S 12.7 mph
(S 20 kph)
- 10SM
12:54
Partly Cloudy
82°F / 28°C 64°F / 18°C 55% 30.24 in
(1024 mb)
SSE 8.1 mph
(SSE 13 kph)
- 10SM
11:54
Partly Cloudy
82°F / 28°C 66°F / 19°C 58% 30.24 in
(1024 mb)
SE 9.2 mph
(SE 15 kph)
- 10SM
10:54
Clear
81°F / 27°C 66°F / 19°C 62% 30.27 in
(1025 mb)
SSE 6.9 mph
(SSE 11 kph)
- 10SM
09:54
Partly Cloudy
75°F / 24°C 66°F / 19°C 74% 30.27 in
(1025 mb)
Variable 3.5 mph
(Variable 6 kph)
- 10SM
09:40
Partly Cloudy
73°F / 23°C 66°F / 19°C 78% 30.27 in
(1025 mb)
S 5.8 mph
(S 9 kph)
- 10SM
08:54
Mostly Cloudy
Fog And Mist
68°F / 20°C 66°F / 19°C 94% 30.27 in
(1025 mb)
S 5.8 mph
(S 9 kph)
- 3SM
08:40
Mostly Cloudy
Fog And Mist
68°F / 20°C 66°F / 19°C 94% 30.27 in
(1025 mb)
S 4.6 mph
(S 7 kph)
- 1SM
08:21
Overcast
Fog
68°F / 20°C 66°F / 19°C 94% 30.27 in
(1025 mb)
S 3.5 mph
(S 6 kph)
- 1/2SM
08:13
Overcast
Fog And Mist
68°F / 20°C 66°F / 19°C 94% 30.27 in
(1025 mb)
Calm - 1 1/2SM
07:54
Obscured
Fog
66°F / 19°C 66°F / 19°C 100% 30.27 in
(1025 mb)
SSE 3.5 mph
(SSE 6 kph)
- 1/2SM
07:27
Obscured
Fog
66°F / 19°C 66°F / 19°C 100% 30.27 in
(1025 mb)
Calm - 1/4SM
07:18
Mostly Cloudy
Fog And Mist
66°F / 19°C 66°F / 19°C 100% 30.27 in
(1025 mb)
Calm - 2SM
07:12
Partly Cloudy
Fog And Mist
66°F / 19°C 64°F / 18°C 94% 30.27 in
(1025 mb)
Calm - 2SM
06:59
Clear
Fog And Mist
66°F / 19°C 64°F / 18°C 94% 30.27 in
(1025 mb)
Calm - 2SM
06:54
Partly Cloudy
Fog And Mist
66°F / 19°C 64°F / 18°C 94% 30.27 in
(1025 mb)
Calm - 5SM
06:46
Partly Cloudy
Fog And Mist
66°F / 19°C 64°F / 18°C 94% 30.27 in
(1025 mb)
Calm - 3SM
06:34
Mostly Cloudy
Fog And Mist
64°F / 18°C 64°F / 18°C 100% 30.27 in
(1025 mb)
Calm - 2SM
06:31
Overcast
Fog And Mist
64°F / 18°C 64°F / 18°C 100% 30.27 in
(1025 mb)
Calm - 1 1/4SM
05:54
Obscured
Fog
64°F / 18°C 64°F / 18°C 100% 30.24 in
(1024 mb)
Calm - 1/4SM
05:44
Obscured
Fog
64°F / 18°C 64°F / 18°C 100% 30.24 in
(1024 mb)
S 3.5 mph
(S 6 kph)
- 1/4SM
05:09
Overcast
Fog And Mist
66°F / 19°C 66°F / 19°C 100% 30.24 in
(1024 mb)
Calm - 3/4SM
04:57
Mostly Cloudy
Fog And Mist
66°F / 19°C 66°F / 19°C 100% 30.24 in
(1024 mb)
Calm - 1 1/4SM
04:54
Mostly Cloudy
Fog And Mist
66°F / 19°C 66°F / 19°C 100% 30.24 in
(1024 mb)
Calm - 2SM
04:51
Mostly Cloudy
Fog And Mist
66°F / 19°C 66°F / 19°C 100% 30.24 in
(1024 mb)
Calm - 2 1/2SM
04:43
Partly Cloudy
Fog And Mist
66°F / 19°C 64°F / 18°C 94% 30.24 in
(1024 mb)
Calm - 5SM
03:54
Clear
68°F / 20°C 66°F / 19°C 94% 30.24 in
(1024 mb)
Calm - 7SM
02:46
Mostly Cloudy
70°F / 21°C 66°F / 19°C 88% 30.24 in
(1024 mb)
Calm - 7SM
01:54
Clear
68°F / 20°C 66°F / 19°C 94% 30.24 in
(1024 mb)
Calm - 7SM
00:54
Clear
70°F / 21°C 66°F / 19°C 88% 30.24 in
(1024 mb)
Calm - 9SM
Time Weather Temperature Dewpoint Humidity Pressure Winds Precip Visibility


Weather for websites

WeatherForYou.com, LLC is not responsible for any damages or problems caused by this service. Current weather conditions are obtained from the closest station including government and personal stations which may have varying degrees of accuracy. Weather forecasts are derived from the NOAA NDFD. Like all things, this site belongs to Jesus Christ... He just trusts me to maintain it. If you have any questions or comments email webmaster@weatherforyou.com

Copyright © 2014, WeatherForYou.com LLC. All rights reserved.